User: anonymous   Login
Location: Corralito
(10.2667°N, 66.9500°W)
Time: 13:21:12
(UTC+00:00)
Language:

In-Cosmos 22 - Orbit

View from above orbital plane
View from above orbital plane
View from above satellite
View from above satellite

Ground track
Ground track

The orbit data is extracted from the following two-line orbital elements,

1 12645U 81075A   23270.65231215  .00000204  00000-0  90354-4 0  9999
2 12645  81.2144 111.2970 0063238 178.5826 181.5541 14.18561795179469
Epoch (UTC): 27 September 2023 15:39:19
Eccentricity: 0.0063238
inclination: 81.2144°
perigee height: 784 km
apogee height: 876 km
right ascension of ascending node: 111.2970°
argument of perigee: 178.5826°
revolutions per day: 14.18561795
mean anomaly at epoch: 181.5541°
orbit number at epoch: 17946

The dashed part of the orbit path shows where the satellite is in the earth's shadow,  

DLR